{"data":{"norad_id":45158,"epoch":"2026-09-20T03:33:07.962048Z","epoch_age_seconds":44759,"freshness":"FRESH","line1":"1 45158U 20008AD  26263.14800882  .00000467  00000+0  13012-2 0  9998","line2":"2 45158  87.8900  17.3656 0001719 102.6779 257.4540 13.10376852320463","mean_motion":13.10376852,"eccentricity":0.0001719,"inclination_deg":87.89,"raan_deg":17.3656,"arg_perigee_deg":102.6779,"mean_anomaly_deg":257.454,"bstar":0.0013012,"rev_number":32046,"period_min":109.89205111508,"perigee_km":1220.3951372034,"apogee_km":1223.0079616967,"semimajor_km":7599.8385494501,"source":"CELESTRAK","updated_at":"2026-09-20T09:00:44.550287Z"}}